Manchester, NH

6:00 AM EDT on September 26, 2017 (GMT -0400)
Manchester

Weather History for KMHT - September, 2012

Change the Weather History Date:

Thursday, September 27, 2012

  Actual Average Record
Temperature  
Mean Temperature 57 °F 58 °F  
Max Temperature 66 °F 68 °F 86 °F (2007)
Min Temperature 48 °F 48 °F 29 °F (1955)
Degree Days  
Heating Degree Days 8 8  
Month to date heating degree days 100  
Since 1 July heating degree days 118  
Cooling Degree Days 0 1  
Month to date cooling degree days 53  
Year to date cooling degree days 639  
Growing Degree Days 7 (Base 50)    
Moisture  
Dew Point 46 °F    
Average Humidity 64    
Maximum Humidity 100    
Minimum Humidity 33    
Precipitation  
Precipitation 0.00 in 0.14 in 2.05 in (1975)
Month to date precipitation 3.37  
Year to date precipitation 32.63  
Snow  
Snow 0.00 in - - ()
Month to date snowfall  
Since 1 July snowfall  
Snow Depth -    
Sea Level Pressure  
Sea Level Pressure 30.16 in    
Wind  
Wind Speed 5 mph (NNW)    
Max Wind Speed 17 mph    
Max Gust Speed 25 mph    
Visibility 9 miles    
Events      
T = Trace of Precipitation, MM = Missing Value Source: NWS Daily Summary

Daily Weather History Graph

Daily Weather History Graph

Search for Another Location

Airport or City:

Trip Planner

Search our weather history database for the weather conditions in past years. The results will help you decide how hot, cold, wet, or windy it might be!

Date:

Astronomy

Sep. 27, 2012 Rise Set
Actual Time 6:39 AM EDT 6:33 PM EDT
Civil Twilight 6:10 AM EDT 7:01 PM EDT
Nautical Twilight 5:37 AM EDT 7:34 PM EDT
Astronomical Twilight 5:04 AM EDT 8:07 PM EDT
Moon 5:05 PM EDT (9/27) 4:02 AM EDT (9/27)
Length of Visible Light 12h 50m
Length of Day
11h 54m
Waxing Gibbous, 94% of the Moon is Illuminated
Sep 27
Waxing Gibbous
Sep 29
Full
Oct 8
Last Quarter
Oct 15
New
Oct 21
First Quarter

Hourly Weather History & Observations

Time (EDT) Temp. Dew Point Humidity Pressure Visibility Wind Dir Wind Speed Gust Speed Precip Events Conditions
12:53 AM 63.0 °F 59.0 °F 87% 30.02 in 10.0 mi South 3.5 mph - N/A   Clear
1:53 AM 63.0 °F 60.1 °F 90% 30.02 in 9.0 mi Calm Calm - 0.00 in   Overcast
2:53 AM 62.1 °F 60.1 °F 93% 30.01 in 8.0 mi Calm Calm - 0.00 in   Overcast
3:53 AM 62.1 °F 59.0 °F 90% 30.02 in 5.0 mi Calm Calm - N/A   Clear
4:39 AM 60.8 °F 60.8 °F 100% 30.02 in 3.0 mi Calm Calm - N/A   Mostly Cloudy
4:53 AM 62.1 °F 59.0 °F 90% 30.06 in 5.0 mi WNW 3.5 mph - N/A   Mostly Cloudy
5:53 AM 61.0 °F 57.9 °F 90% 30.09 in 5.0 mi Calm Calm - N/A   Mostly Cloudy
6:12 AM 60.8 °F 55.4 °F 82% 30.06 in 10.0 mi NW 5.8 mph - N/A   Scattered Clouds
6:53 AM 59.0 °F 54.0 °F 83% 30.13 in 10.0 mi NNW 10.4 mph - N/A   Partly Cloudy
7:53 AM 59.0 °F 46.9 °F 64% 30.17 in 10.0 mi NNW 11.5 mph - N/A   Partly Cloudy
8:53 AM 60.1 °F 43.0 °F 53% 30.19 in 10.0 mi NNW 9.2 mph - N/A   Clear
9:53 AM 61.0 °F 37.9 °F 42% 30.21 in 10.0 mi North 16.1 mph 23.0 mph N/A   Clear
10:53 AM 63.0 °F 37.0 °F 38% 30.21 in 10.0 mi NNW 17.3 mph 25.3 mph N/A   Partly Cloudy
11:53 AM 64.0 °F 37.9 °F 38% 30.21 in 10.0 mi NNW 11.5 mph 21.9 mph N/A   Partly Cloudy
12:53 PM 64.9 °F 37.9 °F 37% 30.19 in 10.0 mi NW 11.5 mph - N/A   Partly Cloudy
1:53 PM 66.0 °F 37.9 °F 36% 30.18 in 10.0 mi NNW 9.2 mph - N/A   Partly Cloudy
2:53 PM 66.0 °F 36.0 °F 33% 30.18 in 10.0 mi NW 10.4 mph 19.6 mph N/A   Partly Cloudy
3:53 PM 66.0 °F 37.9 °F 36% 30.18 in 10.0 mi Variable 4.6 mph - N/A   Partly Cloudy
4:53 PM 64.4 °F 37.4 °F 37% 30.16 in 10.0 mi NW 9.2 mph - N/A   Partly Cloudy
5:53 PM 64.9 °F 37.9 °F 37% 30.21 in 10.0 mi NNW 11.5 mph - N/A   Clear
6:53 PM 61.0 °F 39.9 °F 46% 30.23 in 10.0 mi NNE 4.6 mph - N/A   Clear
7:53 PM 57.0 °F 42.1 °F 57% 30.25 in 10.0 mi Calm Calm - N/A   Clear
8:53 PM 55.0 °F 43.0 °F 64% 30.26 in 10.0 mi Calm Calm - N/A   Clear
9:53 PM 52.0 °F 43.0 °F 71% 30.27 in 10.0 mi Calm Calm - N/A   Clear
10:53 PM 48.9 °F 42.1 °F 77% 30.28 in 10.0 mi Calm Calm - N/A   Clear
11:53 PM 50.0 °F 44.1 °F 80% 30.28 in 10.0 mi Calm Calm - N/A   Clear